GFSNE_850_dewp_231.txt.gz
Dewpoint
11 11 10 9 8 8 7 8 7 7 7 7 7 7 6 6 6 6 6 6 6 6 5 4 3 3 2 -1 -2 -3 -2 2 -6 -4 -0 1 -0 1
12 12 11 10 10 9 9 8 8 8 7 8 8 7 7 7 6 6 6 6 6 6 6 5 5 4 3 2 2 -0 -1 -3 -4 -3 0 -5 -1 1
12 12 12 11 10 10 10 10 9 9 8 9 8 8 7 7 7 7 6 6 6 6 7 6 6 5 4 4 3 3 -1 -2 -3 -3 -3 -3 -1 0
13 13 12 12 11 11 11 10 10 10 9 9 9 8 8 8 8 7 7 7 6 6 6 7 6 6 5 4 5 4 3 -1 -2 -2 -2 -3 -1 -1
12 12 13 12 12 11 11 11 11 11 10 9 9 9 8 8 8 7 7 7 7 7 7 7 6 6 6 5 5 5 4 2 1 -2 -3 -4 -1 -1
11 12 12 12 12 12 12 12 12 11 11 9 9 8 8 8 8 8 7 8 7 7 8 7 7 6 6 5 5 5 4 3 2 -1 -2 -2 -2 -1
11 10 11 12 12 12 12 11 11 11 11 10 10 8 8 8 9 9 8 7 7 7 8 7 7 6 5 5 5 5 4 4 3 -0 -1 -0 -2 -3
9 11 11 12 10 11 11 11 11 11 10 10 9 9 9 9 9 9 8 7 6 7 7 7 7 6 6 5 5 5 4 3 2 1 -0 0 -2 -2
11 11 10 8 9 11 11 10 9 10 10 10 10 9 9 9 9 8 8 8 8 7 7 6 5 6 6 5 5 5 4 3 2 2 0 -0 -3 -4
9 10 11 10 10 11 9 10 10 10 10 9 9 9 9 9 9 9 9 8 7 6 5 5 5 5 5 5 5 5 4 4 2 1 1 -0 -1 -4
4 6 9 10 10 10 11 11 10 9 9 9 8 9 9 9 8 8 7 7 6 5 5 4 4 4 3 3 3 3 3 3 2 1 0 -0 -1 -2
3 4 7 8 9 9 9 10 10 10 10 9 10 9 9 9 8 8 8 7 6 5 4 3 3 3 2 2 2 2 1 1 1 1 0 -0 -1 -2
3 3 4 6 8 8 8 9 9 9 9 10 10 9 9 8 8 7 7 6 6 6 5 4 3 3 2 1 1 0 0 0 -1 -0 -1 -1 -1 -2
3 3 3 4 6 8 9 9 9 9 9 9 9 8 8 7 7 7 6 6 5 4 4 4 4 3 2 -0 0 -1 -1 -1 -1 -1 -2 -2 -2 -3
3 3 3 4 5 6 7 8 8 8 8 7 8 8 8 8 7 6 5 4 3 3 3 2 2 2 1 1 0 -1 -2 -3 -3 -2 -2 -2 -3 -4
3 4 4 5 5 5 6 7 7 7 7 6 7 7 7 6 5 4 4 3 2 2 1 1 0 -0 -1 -1 -1 -1 -2 -3 -3 -3 -4 -4 -4 -4
3 3 3 4 4 5 6 6 6 7 6 6 6 5 5 4 3 2 2 2 1 1 0 -1 -2 -2 -2 -2 -2 -3 -3 -3 -3 -3 -4 -5 -5 -5
3 3 3 4 4 4 4 5 5 4 5 5 5 4 4 3 2 1 1 1 0 -0 -1 -1 -2 -3 -4 -4 -4 -4 -4 -4 -4 -4 -5 -5 -5 -6
2 3 2 3 3 3 4 3 3 3 3 2 3 2 2 1 1 0 -0 -0 -1 -1 -1 -2 -2 -3 -4 -4 -4 -4 -5 -5 -4 -5 -5 -5 -6 -6
2 2 2 2 2 2 2 2 2 1 1 1 1 1 0 0 -0 -0 -1 -1 -2 -2 -2 -3 -3 -3 -3 -4 -5 -4 -5 -5 -5 -5 -5 -6 -6 -6
1 1 1 1 1 1 1 0 0 0 -0 -0 -0 -0 -1 -1 -1 -1 -2 -2 -2 -2 -3 -3 -3 -3 -3 -4 -4 -4 -4 -5 -5 -5 -5 -6 -6 -6
0 0 0 1 0 0 -0 -0 -0 -0 -1 -1 -1 -1 -1 -1 -1 -1 -2 -2 -2 -2 -2 -3 -3 -4 -4 -4 -4 -5 -5 -5 -5 -5 -6 -6 -6 -7
-0 -0 -0 -0 -0 -0 -0 -1 -1 -1 -1 -1 -1 -1 -1 -1 -1 -1 -2 -2 -2 -3 -3 -3 -4 -4 -4 -4 -5 -5 -5 -5 -6 -6 -6 -7 -7 -7

GFSNE_850_dewp_234.txt.gz
Dewpoint
13 13 11 10 7 5 2 3 4 6 6 7 7 8 8 8 7 6 6 6 6 6 6 6 6 5 4 2 2 1 1 3 2 3 3 2 1 1
13 12 12 11 10 9 9 6 6 7 7 8 8 8 8 8 8 8 7 6 6 6 6 6 6 6 5 4 3 3 1 3 2 3 2 1 2 1
13 13 12 11 11 11 11 10 9 9 8 9 9 9 9 9 9 9 8 7 7 7 7 7 7 7 6 5 4 4 3 2 1 0 -0 1 -0 -2
13 13 13 13 12 12 11 11 10 10 9 9 9 9 9 10 9 9 9 8 8 8 7 7 7 7 7 7 6 5 4 4 3 0 -0 -1 -2 -2
12 12 12 12 12 12 11 11 11 11 10 10 10 10 10 10 9 9 9 9 9 9 9 7 7 7 7 7 7 6 5 5 4 3 0 -1 -2 -2
10 11 11 11 11 11 11 12 11 11 11 10 10 10 10 10 10 10 9 9 9 9 9 9 7 7 7 7 7 6 6 5 5 4 2 0 -1 -2
10 10 9 9 9 10 10 10 11 11 10 10 10 10 10 10 10 10 9 9 9 9 8 8 7 7 7 7 7 6 6 6 5 4 3 1 0 -1
11 11 10 11 10 11 10 11 11 11 11 10 11 10 10 10 10 10 9 9 8 9 9 9 8 7 7 7 7 6 6 6 5 4 4 3 1 -1
11 11 11 11 11 11 11 11 11 11 10 10 10 10 10 10 10 10 9 9 9 9 8 8 8 8 8 7 7 7 6 6 5 4 4 3 2 -1
9 10 10 10 10 10 11 11 11 10 10 10 10 9 9 10 9 9 9 9 9 8 7 7 7 7 6 6 6 6 5 5 5 4 4 3 2 1
1 5 8 9 10 10 10 10 9 10 10 10 10 10 10 10 9 9 9 8 7 7 8 7 7 6 5 5 5 5 5 4 4 4 4 3 2 1
-6 -4 0 4 6 8 9 10 9 9 10 10 10 10 10 9 9 9 9 9 8 7 7 7 6 5 4 4 4 4 4 3 3 2 3 3 2 0
-13 -9 -3 1 2 6 8 8 9 9 8 9 10 10 10 9 9 9 9 8 8 8 8 7 6 5 4 4 4 3 3 3 2 1 1 2 1 0
-23 -12 -6 2 3 2 5 7 8 8 9 9 9 9 9 9 9 9 8 8 7 7 6 6 6 5 5 4 3 3 3 2 1 1 0 0 1 0
-11 -18 -6 1 3 3 4 6 7 8 8 8 9 9 8 9 9 8 7 6 5 5 4 4 4 4 4 3 2 2 2 0 -0 -0 -1 -1 -1 -1
-8 -12 -5 -2 2 2 3 5 6 7 8 8 8 8 8 8 8 7 6 5 5 3 3 2 2 2 2 1 1 1 0 0 -1 -1 -2 -2 -2 -2
-6 -8 -3 3 3 3 3 4 5 6 6 7 7 7 7 7 7 6 5 5 3 3 2 2 1 0 0 -0 -0 -1 -1 -1 -2 -2 -3 -3 -2 -2
-5 -5 -2 2 2 3 3 4 4 5 5 6 6 6 6 6 6 5 4 3 3 2 1 1 1 -0 -1 -2 -2 -2 -3 -3 -3 -3 -4 -4 -4 -3
-5 -4 1 2 2 3 3 3 4 5 5 4 5 5 4 4 4 3 3 2 1 1 0 0 -0 -1 -2 -2 -3 -3 -4 -4 -4 -4 -4 -4 -5 -4
-6 -8 1 1 2 2 2 3 3 3 3 3 3 3 3 3 2 1 1 1 0 -0 -1 -1 -1 -2 -2 -2 -3 -3 -4 -4 -4 -5 -5 -6 -6 -6
-6 -5 -0 1 1 2 2 2 2 2 2 2 2 2 1 1 1 0 -0 -1 -1 -1 -2 -2 -2 -3 -3 -3 -4 -4 -4 -5 -5 -5 -5 -6 -6 -6
-3 -1 0 1 2 2 1 1 1 0 0 0 0 0 -0 -0 -0 -1 -1 -1 -2 -2 -2 -2 -3 -3 -4 -4 -4 -4 -4 -5 -5 -6 -6 -6 -6 -6
-2 -1 1 1 1 1 0 0 -0 -0 -0 -0 -0 -1 -1 -1 -1 -1 -1 -2 -2 -2 -2 -3 -3 -3 -4 -4 -4 -4 -5 -5 -5 -6 -6 -6 -6 -6

GFSNE_850_dewp_237.txt.gz
Dewpoint
12 10 10 10 8 6 2 -0 4 5 5 3 4 4 6 7 8 8 7 6 6 5 5 5 5 5 5 5 5 3 2 0 4 4 3 3 1 1
13 12 11 11 11 11 9 6 4 4 5 6 5 6 7 8 8 8 8 8 7 6 6 6 6 6 6 6 5 5 4 3 2 3 2 3 3 1
12 12 12 12 12 11 12 11 8 6 6 6 7 8 8 8 8 8 8 8 8 7 7 7 6 6 6 6 6 6 5 4 4 2 1 2 2 1
13 12 12 12 12 11 11 11 10 10 9 9 8 9 9 8 9 9 9 9 9 9 8 7 7 8 8 8 7 7 6 5 4 3 3 2 2 1
12 12 12 12 12 12 11 11 11 10 10 10 9 9 9 9 9 9 9 10 9 9 9 8 8 7 7 7 7 7 7 6 5 5 4 3 2 2
12 10 11 11 11 11 12 12 11 11 10 10 10 9 9 10 9 9 9 10 10 10 9 9 9 8 8 7 7 7 7 6 6 5 5 5 4 2
11 11 10 10 10 9 10 11 11 10 10 9 9 9 9 10 10 10 10 10 10 10 9 9 9 9 9 8 8 7 7 6 6 5 5 5 4 2
10 9 10 11 10 10 9 10 10 10 10 9 8 9 9 10 11 10 10 10 10 9 10 10 10 9 9 9 9 8 8 7 7 5 5 5 4 3
10 10 11 11 10 10 10 10 10 10 10 10 10 10 9 10 10 10 10 10 10 10 9 9 9 9 9 8 9 8 7 7 7 5 6 5 4 3
9 11 11 11 10 10 11 11 11 10 10 10 10 10 10 10 10 10 10 10 9 9 9 9 9 8 8 7 7 7 7 6 6 6 5 5 4 4
-1 4 8 9 10 10 10 10 10 10 10 10 10 10 10 10 10 10 10 9 9 9 9 9 8 8 8 7 7 6 6 6 5 5 5 4 4 4
-11 -7 -4 2 4 8 9 10 10 9 10 10 10 10 10 10 9 10 9 9 9 9 9 8 8 8 7 7 7 6 5 5 5 4 4 4 3 3
-15 -20 -12 -7 -4 0 4 7 8 9 9 10 9 9 9 10 9 9 9 9 9 9 9 8 8 8 7 6 6 5 5 4 4 4 3 3 2 2
-12 -13 -15 -14 -7 -3 0 2 6 8 8 8 9 9 9 9 9 9 9 9 9 9 8 8 7 7 7 6 5 5 4 4 4 3 3 2 2 2
-11 -12 -12 -13 -17 -6 -0 2 3 6 8 8 8 7 8 9 9 9 8 8 8 7 7 6 6 6 6 5 5 4 4 3 3 3 2 1 1 0
-8 -11 -10 -12 -13 -18 -3 2 3 4 5 7 7 8 8 8 8 8 8 8 7 6 5 5 4 4 4 4 3 3 3 2 2 2 1 1 0 -0
-6 -6 -8 -11 -14 -14 -11 0 3 4 5 6 6 7 8 8 8 8 8 7 6 6 5 4 3 2 2 2 2 2 2 1 1 1 0 -1 -1 -1
-7 -6 -6 -8 -10 -12 -18 -14 -1 2 4 4 5 6 7 7 7 7 7 6 5 5 4 3 3 2 1 0 0 0 0 -1 -1 -1 -2 -2 -2 -2
-5 -4 -4 -5 -6 -9 -3 -0 2 1 3 4 5 5 6 6 6 6 5 4 3 3 3 2 2 1 1 -0 -1 -1 -1 -2 -2 -3 -3 -3 -3 -3
-4 -3 -3 -5 -6 -6 1 1 2 3 3 4 4 5 5 5 5 5 4 3 2 1 1 1 1 1 0 -0 -1 -2 -3 -4 -4 -4 -4 -4 -4 -4
-4 -3 -3 -3 -5 -7 1 1 2 2 3 4 4 4 4 4 3 3 2 1 2 1 1 -0 -1 -1 -1 -2 -2 -3 -3 -4 -4 -4 -4 -5 -5 -5
-4 -3 -2 -3 -4 -4 1 1 2 2 2 2 2 2 3 3 3 2 1 1 0 -0 -0 -1 -2 -2 -2 -3 -4 -4 -4 -4 -5 -5 -5 -5 -6 -6
-4 -3 -2 -3 -3 -1 0 1 1 1 1 1 1 1 1 1 1 1 0 -1 -1 -1 -1 -2 -3 -3 -3 -4 -4 -4 -4 -5 -5 -6 -6 -6 -6 -6

GFSNE_850_dewp_240.txt.gz
Dewpoint
10 9 9 8 7 6 5 6 6 6 7 9 8 2 3 4 5 6 7 6 5 5 4 4 4 4 4 4 4 4 4 2 1 -1 3 2 2 -4
13 11 10 9 9 8 7 7 7 6 5 6 7 8 4 3 4 6 7 8 7 6 5 5 5 5 5 5 5 5 5 4 3 1 1 3 2 0
13 13 12 11 10 10 9 8 8 7 7 7 7 8 7 5 6 7 8 8 8 8 7 6 6 6 6 6 6 6 6 5 5 3 3 2 2 2
13 13 12 12 12 11 11 10 10 10 9 9 9 8 8 8 7 8 8 8 8 8 8 7 7 7 7 7 7 6 6 6 6 5 4 3 2 1
13 13 13 12 12 12 11 11 11 11 11 10 9 9 10 9 8 8 8 8 9 9 9 9 8 7 7 7 7 7 7 7 6 6 5 5 3 3
12 12 12 12 13 12 12 12 11 11 11 11 10 9 9 9 9 9 9 9 9 9 9 9 9 8 8 7 7 7 7 7 7 7 6 5 5 4
11 11 12 11 12 12 11 11 11 11 10 10 11 10 10 10 10 10 10 10 10 9 9 10 10 10 10 9 9 8 8 7 7 7 7 6 5 5
11 11 11 11 12 10 9 10 10 9 10 10 10 10 10 10 10 10 9 9 9 10 10 10 10 10 10 10 9 9 9 9 9 7 7 6 5 5
11 11 10 11 11 11 10 11 10 10 10 10 10 9 8 9 10 9 9 9 9 10 10 10 10 10 9 9 9 9 9 9 8 8 7 6 5 5
9 10 11 11 11 10 10 10 11 10 10 10 10 9 10 10 10 10 10 10 10 9 9 10 10 9 9 9 9 8 8 8 8 8 7 6 6 5
0 8 10 10 10 10 10 10 10 10 10 10 10 10 10 10 10 10 10 9 9 9 9 9 9 9 9 9 8 8 8 7 7 7 7 6 6 5
-13 -11 -5 2 8 9 10 10 10 10 10 10 10 10 10 10 10 10 10 10 10 9 9 9 9 9 9 9 8 8 8 7 6 6 6 6 5 4
-10 -13 -15 -14 -8 -3 2 7 9 9 9 10 10 10 10 10 10 9 10 10 9 9 9 9 9 8 9 8 8 8 7 7 6 5 5 5 5 4
-9 -10 -11 -13 -16 -15 -8 -3 1 5 8 8 9 9 9 9 9 9 9 9 9 9 9 9 9 9 8 8 8 8 8 7 5 5 5 5 4 3
-8 -8 -9 -11 -12 -14 -17 -14 -7 -2 1 4 4 7 8 8 9 9 9 8 8 8 8 8 7 7 7 7 6 6 6 6 5 4 4 4 4 3
-8 -7 -7 -9 -10 -13 -14 -15 -17 -6 1 2 3 4 7 8 8 8 9 9 9 7 7 7 6 6 6 6 5 5 5 5 4 4 3 3 3 2
-14 -10 -7 -8 -9 -13 -14 -14 -14 -15 -2 2 3 3 6 7 7 7 8 8 8 8 6 7 6 4 5 4 4 4 4 3 3 2 2 2 2 1
-8 -10 -11 -9 -7 -9 -11 -14 -13 -13 -3 2 3 3 5 6 6 7 7 8 8 7 7 6 4 4 3 3 3 2 2 2 2 2 1 1 1 0
-5 -5 -7 -9 -10 -9 -8 -10 -13 -15 -9 -0 3 3 4 5 5 6 6 7 7 6 5 4 4 4 3 2 1 1 1 1 1 0 -0 -0 -1 -1
-5 -5 -5 -7 -10 -10 -6 -5 -8 -9 -3 1 3 3 4 4 5 6 6 6 6 5 4 3 3 3 2 2 1 0 0 -1 -2 -2 -2 -2 -2 -2
-5 -5 -5 -5 -7 -8 -9 -6 -6 -6 0 0 1 2 3 4 5 5 5 5 4 3 3 2 2 1 1 1 0 -2 -2 -3 -3 -4 -4 -4 -4 -4
-5 -5 -5 -5 -4 -4 -7 -6 -5 -7 -0 0 2 2 3 3 4 4 4 3 2 2 1 1 -0 -0 -0 -1 -1 -2 -3 -3 -4 -4 -4 -4 -5 -5
-5 -5 -5 -5 -4 -3 -3 -2 -4 -7 -1 1 1 2 3 3 3 2 2 2 1 1 0 -1 -2 -2 -2 -2 -2 -2 -3 -4 -4 -5 -5 -5 -5 -6

GFSNE_850_dewp_246.txt.gz
Dewpoint
3 -0 2 3 7 9 8 8 6 9 10 9 8 7 6 6 3 3 0 -1 -1 -1 -0 -0 -1 -1 -2 -3 -2 -2 -2 -1 -0 -0 -2 -2 -2 -4
6 3 3 5 8 9 9 7 7 6 9 8 8 7 7 7 6 6 3 1 1 1 2 2 3 2 1 1 0 1 2 2 2 3 3 2 1 0
12 6 5 7 8 9 10 9 8 7 6 6 9 8 8 7 7 6 5 6 4 4 4 5 5 5 4 4 3 3 3 3 4 4 4 4 4 2
12 10 7 6 9 9 10 10 9 8 7 6 6 9 9 8 8 7 7 7 6 5 5 5 7 7 6 5 5 5 4 4 5 5 5 5 5 5
12 12 11 9 10 10 10 10 10 9 8 8 7 8 9 9 9 8 7 7 7 6 5 5 7 8 7 7 7 6 6 6 6 6 6 6 5 5
12 13 12 12 11 11 11 11 10 10 9 9 8 7 8 10 10 9 9 8 8 8 7 7 8 8 8 8 8 8 7 7 7 7 7 7 6 6
13 12 13 12 12 11 11 11 11 11 10 9 9 9 9 8 9 10 10 10 10 9 9 8 8 8 8 9 9 8 8 8 8 7 7 7 7 7
13 13 13 13 13 12 12 11 11 11 11 11 10 10 10 10 10 10 10 11 10 10 10 9 9 10 10 10 9 9 10 10 10 10 10 9 8 8
12 12 12 12 12 13 12 12 12 12 12 11 11 11 11 11 11 11 11 11 10 10 10 10 10 10 9 8 8 9 9 9 9 9 10 10 9 9
10 11 12 11 11 12 12 12 11 11 11 11 11 11 11 11 11 11 11 11 11 11 10 10 9 9 9 9 9 9 9 9 10 10 9 10 9 9
3 9 11 11 11 10 9 10 10 11 10 10 10 11 11 11 10 10 10 10 10 10 10 10 10 10 10 10 9 9 9 9 10 9 9 9 8 8
0 -1 6 9 8 8 10 11 11 11 10 10 10 10 10 10 10 10 10 10 10 10 10 10 10 10 10 9 9 9 9 9 9 9 9 9 8 8
-0 -1 -4 -2 2 4 6 9 9 9 9 10 10 10 10 10 10 10 10 10 10 10 10 10 10 10 10 9 9 9 9 9 9 9 9 8 8 8
-4 -0 -2 -2 -4 -5 -6 -3 6 8 7 8 9 9 10 10 10 9 9 9 9 9 9 9 9 9 9 9 9 9 9 9 9 8 8 8 7 7
-3 -6 -3 -1 -4 -3 -6 -8 -11 -10 -3 1 5 8 9 9 9 9 9 9 9 9 9 9 9 9 8 8 8 8 8 8 8 8 8 8 8 7
-6 -6 -6 -10 -3 -2 -6 -7 -8 -12 -12 -15 -10 -3 -0 5 8 9 9 9 8 8 9 8 8 8 8 8 8 7 7 7 8 8 8 7 7 6
-5 -7 -8 -8 -9 -12 -7 -4 -9 -10 -11 -14 -15 -17 -14 -7 -5 -1 5 7 6 7 8 8 8 8 7 7 7 6 7 7 6 7 6 6 6 5
-5 -5 -6 -7 -8 -10 -10 -12 -9 -8 -8 -10 -13 -14 -18 -20 -10 1 3 6 7 6 6 7 7 7 7 6 6 6 6 6 6 5 5 5 5 4
-5 -5 -5 -5 -6 -6 -7 -10 -10 -10 -11 -10 -9 -11 -12 -13 -13 -9 1 4 5 5 5 6 6 7 7 6 6 6 5 5 5 5 4 4 4 3
-5 -5 -5 -5 -5 -5 -5 -5 -7 -9 -10 -13 -14 -12 -10 -10 -11 -7 1 2 4 5 5 5 5 5 6 6 6 5 4 3 4 4 3 3 3 2
-5 -4 -4 -4 -4 -4 -5 -4 -3 -3 -4 -3 -2 -5 -10 -8 -8 -8 -5 1 3 4 3 4 4 5 4 4 3 3 3 2 2 2 2 2 1 1
-5 -5 -5 -4 -4 -5 -4 -4 -4 -4 -4 -3 -3 -1 -3 -6 -7 -5 -3 2 2 3 3 3 4 4 3 3 3 2 2 0 1 -0 -0 0 -0 -2
-5 -5 -4 -4 -4 -4 -4 -5 -4 -5 -5 -4 -3 -3 -2 -2 -5 -6 -2 -1 1 1 1 2 3 2 1 1 2 2 1 1 -1 -2 -2 -2 -3 -4